Location: Buch
(49.7331°N, 12.1098°E)
Time: 04:19:28
(UTC+00:00)

Cosmos 2181 Rocket - Pass Details

Date: 12 May 2021
Orbit: 952 x 1014 km, 82.9° (Epoch: 23 June)

Event Time Altitude Azimuth Distance (km) Brightness Sun altitude
Exits shadow 22:11:53 35° 191° (S) 1,501 4.5 -20.8°
Maximum altitude 22:14:41 87° 277° (W) 966 3.9 -20.9°
Drops below altitude 10° 22:20:52 10° 9° (N) 2,693 7.3 -21.1°
Sets 22:23:22 0° 10° (N) 3,642 8.2 -21.2°
